Regional Weather Roundup
Issued by NWS

Home | Current Version | Previous Version | Graphics & Text | Print | Product List | Glossary On
Versions: 1 2 3 4 5 6 7 8 9 10 11 12 13 14 15 16 17 18 19 20 21 22 23 24 25 26 27 28 29 30 31 32 33 34 35 36 37 38 39 40 41 42 43 44 45 46 47 48 49 50
000
ASUS43 KLMK 241602
RWRKY
KENTUCKY REGIONAL WEATHER ROUNDUP
NATIONAL WEATHER SERVICE LOUISVILLE KY
1200 PM EDT MON APR 24 2017

NOTE "FAIR" INDICATES FEW OR NO CLOUDS BELOW 12,000 FEET
WITH NO SIGNIFICANT WEATHER AND/OR OBSTRUCTIONS TO VISIBILITY.

KYZ001>023-026-027-061>063-070>075-241700-
WESTERN AND SOUTH CENTRAL KENTUCKY

CITY           SKY/WX    TMP DP  RH WIND       PRES   REMARKS
PADUCAH        SUNNY     69  47  45 NE10      29.88F
HENDERSON      SUNNY     67  46  47 NE7       29.90F
OWENSBORO      SUNNY     66  47  50 NE15      29.89F
HOPKINSVILLE   PTSUNNY   61  52  71 N7        29.88R
BOWLING GREEN  SUNNY     65  54  67 NE7       29.86S
GLASGOW        NOT AVBL
$$

KYZ024-025-028>034-038-045-046-053-241700-
NORTH CENTRAL KENTUCKY

CITY           SKY/WX    TMP DP  RH WIND       PRES   REMARKS
LOUISVILLE/SDF MOSUNNY   70  49  47 NE12      29.87F
LOUISVILLE/LOU SUNNY     68  49  50 E12       29.87F
FORT KNOX      SUNNY     65  50  57 E8        29.85F
$$

KYZ035>037-039>044-047>052-055>060-089>105-241700-
NORTHEAST KENTUCKY

CITY           SKY/WX    TMP DP  RH WIND       PRES   REMARKS
LEXINGTON      PTSUNNY   65  50  58 NE15      29.87S
COVINGTON      MOSUNNY   65  39  38 NE13      29.91F
FRANKFORT      CLOUDY    65  47  52 NE9       29.86S
$$

KYZ054-064>069-076>088-106>120-241700-
SOUTHEAST KENTUCKY

CITY           SKY/WX    TMP DP  RH WIND       PRES   REMARKS
JACKSON        CLOUDY    56  50  80 MISG      29.88F
LONDON         CLOUDY    55  49  80 NE9       29.87R
SOMERSET       CLOUDY    55  50  82 NE5       29.88S
MIDDLESBORO    CLOUDY    63  52  68 CALM      29.83S
MONTICELLO     CLOUDY    56  52  86 N17       29.88
$$





USA.gov is the U.S. government's official web portal to all federal, state and local government web resources and services.